Location: Fort Worth, Tx
(32.7431°N, 97.3695°W)
Time: 08:19:14
(UTC-04:00)

Explorer 11/Cluster Stage 4 - Pass Details

Date: 27 January 2023
Orbit: 466 x 1241 km, 28.8° (Epoch: 02 April)

Event Time Altitude Azimuth Distance (km) Brightness Sun altitude
Rises 06:19:54 0° 198° (SSW) 4,143 10.2 -26.8°
Reaches altitude 10° 06:24:54 10° 172° (S) 3,195 9.8 -25.8°
Maximum altitude 06:28:07 13° 148° (SSE) 2,965 9.9 -25.1°
Drops below altitude 10° 06:31:17 10° 125° (SE) 3,134 10.5 -24.5°
Sets 06:36:03 0° 99° (E) 3,991 11.7 -23.5°
